Location: Rehoboth Beach
(38.7438°N, 75.1341°W)
Time: 04:06:24
(UTC-05:00)

Hubble Space Telescope - Visible Passes

Search period start: 24 January 2018 00:00
Search period end: 03 February 2018 00:00
Orbit: 537 x 541 km, 28.5° (Epoch: 23 January)

Date Brightness Start Highest point End Pass type
(mag) Time Alt. Az. Time Alt. Az. Time Alt. Az.
24 Jan 2.9 18:46:02 10° SSW 18:48:20 15° SSE 18:49:22 13° SSE visible
25 Jan 2.9 18:35:23 10° SSW 18:37:57 16° S 18:39:46 13° SE visible
26 Jan 2.9 18:24:50 10° SW 18:27:35 17° S 18:30:09 11° SE visible
26 Jan 3.8 20:05:16 10° SW 20:05:31 11° SW 20:05:31 11° SW visible
27 Jan 2.9 18:14:20 10° SW 18:17:14 18° S 18:20:08 10° SE visible
27 Jan 3.5 19:55:02 10° SW 19:55:55 13° SW 19:55:55 13° SW visible
28 Jan 2.9 18:03:54 10° SW 18:06:52 19° S 18:09:50 10° SE visible
28 Jan 3.3 19:44:50 10° SW 19:46:22 15° SSW 19:46:22 15° SSW visible
29 Jan 2.9 17:53:31 10° SW 17:56:31 19° S 17:59:31 10° SE visible
29 Jan 3.2 19:34:45 10° SW 19:36:50 15° SSW 19:36:50 15° SSW visible
30 Jan 3.0 17:43:10 10° SW 17:46:09 19° S 17:49:08 10° SE visible
30 Jan 3.3 19:24:46 10° SW 19:26:42 13° SSW 19:27:23 13° S visible
31 Jan 3.4 19:15:04 10° SW 19:16:18 11° SSW 19:17:32 10° S visible
